GW4785 Weather Reports


Display with metric or nautical units.
time (UTC)temp
F
wind
direction
speed
MPH
gust
MPH
rain 1hr
in
rain 24hr
in
rain mn
in
humidity
%
barometer
mb
20260905234444 82 115 0.0 0.0 0.00 0.30 0.30 92 1012.5
20260905233944 83 113 0.0 0.0 0.00 0.30 0.30 91 1012.5
20260905233440 83 119 0.0 0.0 0.00 0.30 0.30 91 1012.4
20260905232938 84 119 0.0 0.0 0.00 0.30 0.30 89 1012.4
20260905232435 84 116 0.0 0.0 0.00 0.30 0.30 88 1012.6
20260905231930 84 117 0.0 0.0 0.00 0.30 0.30 88 1012.7
20260905231426 86 117 0.0 1.0 0.00 0.30 0.30 87 1012.8
20260905230922 86 123 0.0 0.0 0.00 0.30 0.30 81 1012.6
20260905230420 86 117 0.0 0.0 0.00 0.30 0.30 81 1012.5
20260905225913 87 115 1.0 1.0 0.00 0.30 0.30 79 1012.3
20260905225408 86 115 0.0 1.0 0.00 0.30 0.30 80 1012.4
20260905224903 86 108 0.0 1.0 0.00 0.30 0.30 84 1012.4
20260905224359 86 115 1.0 1.0 0.00 0.30 0.30 84 1012.3
20260905223853 87 116 1.0 1.0 0.00 0.30 0.30 81 1012.3
20260905223351 87 110 0.0 1.0 0.00 0.30 0.30 76 1012.4
20260905222846 88 103 1.0 2.0 0.00 0.30 0.30 73 1012.4
20260905222345 89 100 1.0 3.0 0.00 0.30 0.30 75 1012.4
20260905221841 90 99 1.0 2.0 0.00 0.30 0.30 66 1012.5
20260905221337 91 82 1.0 2.0 0.00 0.30 0.30 65 1012.5
20260905220833 91 117 0.0 2.0 0.00 0.30 0.30 74 1012.5
20260905220329 91 116 0.0 0.0 0.00 0.30 0.30 68 1012.2
20260905215827 92 112 0.0 1.0 0.00 0.30 0.30 65 1012.4
20260905215324 92 119 2.0 2.0 0.00 0.30 0.30 61 1012.5
20260905214820 92 137 1.0 2.0 0.00 0.30 0.30 59 1012.2
20260905214315 93 157 2.0 3.0 0.00 0.30 0.30 61 1012.5
20260905213810 92 126 1.0 2.0 0.00 0.30 0.30 63 1012.3
20260905213307 92 115 2.0 3.0 0.00 0.30 0.30 62 1012.3
20260905212806 93 130 1.0 3.0 0.00 0.30 0.30 60 1012.2
20260905212301 93 150 1.0 1.0 0.00 0.30 0.30 59 1012.2
20260905211801 93 149 1.0 3.0 0.00 0.30 0.30 61 1012.4
20260905211256 93 146 2.0 4.0 0.00 0.30 0.30 58 1012.2
20260905210753 93 129 0.0 2.0 0.00 0.30 0.30 57 1012.4
20260905210252 92 142 2.0 4.0 0.00 0.30 0.30 58 1012.5
20260905205751 92 131 1.0 3.0 0.00 0.30 0.30 64 1012.4
20260905205246 92 172 2.0 2.0 0.00 0.30 0.30 59 1012.6
20260905204745 91 145 1.0 3.0 0.00 0.30 0.30 62 1012.5
20260905204241 92 215 6.0 8.0 0.00 0.30 0.30 59 1012.5
20260905203740 92 168 2.0 4.0 0.00 0.30 0.30 59 1012.6
20260905203236 92 129 1.0 4.0 0.00 0.30 0.30 59 1012.6
20260905202731 92 170 3.0 6.0 0.00 0.30 0.30 59 1012.8
20260905202227 92 199 4.0 4.0 0.00 0.30 0.30 60 1012.7
20260905201723 92 212 3.0 3.0 0.00 0.30 0.30 60 1012.9
20260905201222 93 131 2.0 2.0 0.00 0.30 0.30 57 1013.0
20260905200717 92 133 1.0 1.0 0.00 0.30 0.30 59 1013.1
20260905200213 92 148 2.0 6.0 0.00 0.30 0.30 59 1013.1
20260905195711 93 139 1.0 4.0 0.00 0.30 0.30 61 1013.2
20260905195206 93 129 0.0 2.0 0.00 0.30 0.30 58 1013.3
20260905194702 91 121 0.0 1.0 0.00 0.30 0.30 60 1013.4
20260905194155 91 127 0.0 2.0 0.00 0.30 0.30 61 1013.4
20260905193650 91 205 4.0 7.0 0.00 0.30 0.30 59 1013.4
20260905193144 93 152 3.0 3.0 0.00 0.30 0.30 60 1013.6
20260905192640 93 167 1.0 2.0 0.00 0.30 0.30 56 1013.7
20260905192137 92 139 1.0 2.0 0.00 0.30 0.30 60 1013.8
20260905191637 93 172 2.0 4.0 0.00 0.30 0.30 58 1013.7
20260905191134 92 117 1.0 2.0 0.00 0.30 0.30 60 1013.7
20260905190632 91 128 4.0 6.0 0.00 0.30 0.30 61 1013.9
20260905190126 91 140 1.0 2.0 0.00 0.30 0.30 61 1013.7
20260905185625 90 108 1.0 2.0 0.00 0.30 0.30 60 1013.8
20260905185120 91 140 2.0 3.0 0.00 0.30 0.30 60 1013.9
20260905184614 90 99 2.0 4.0 0.00 0.30 0.30 60 1013.9
20260905184113 90 103 2.0 4.0 0.00 0.30 0.30 62 1014.1
20260905183612 90 157 1.0 4.0 0.00 0.30 0.30 62 1014.0
20260905183109 90 62 5.0 6.0 0.00 0.30 0.30 60 1014.0
20260905182608 90 114 1.0 4.0 0.00 0.30 0.30 60 1014.2
20260905182108 90 86 2.0 2.0 0.00 0.30 0.30 58 1014.2
20260905181608 89 169 1.0 6.0 0.00 0.30 0.30 59 1014.4
20260905181107 89 126 1.0 6.0 0.00 0.30 0.30 59 1014.2
20260905180602 89 102 2.0 4.0 0.00 0.30 0.30 60 1014.4
20260905180057 89 176 3.0 3.0 0.00 0.30 0.30 61 1014.5
20260905175556 89 135 2.0 3.0 0.00 0.30 0.30 61 1014.5
20260905175052 89 99 2.0 4.0 0.00 0.30 0.30 64 1014.7
20260905174547 90 39 4.0 6.0 0.00 0.30 0.30 58 1014.6
20260905174042 89 91 2.0 3.0 0.00 0.30 0.30 60 1014.7
20260905173539 89 144 3.0 7.0 0.00 0.30 0.30 59 1014.6
20260905173034 90 152 2.0 2.0 0.00 0.30 0.30 61 1014.6
20260905172533 89 98 2.0 4.0 0.00 0.30 0.30 60 1014.6
20260905172028 89 112 3.0 4.0 0.00 0.30 0.30 60 1014.7
20260905171525 89 121 3.0 6.0 0.00 0.30 0.30 58 1014.7
20260905171020 88 125 0.0 3.0 0.00 0.30 0.30 65 1014.7
20260905170517 88 117 4.0 4.0 0.00 0.30 0.30 58 1015.0
20260905170012 89 105 1.0 2.0 0.00 0.30 0.30 57 1015.0
20260905165507 88 115 0.0 1.0 0.00 0.30 0.30 60 1015.0
20260905165001 88 126 1.0 3.0 0.00 0.30 0.30 63 1015.2
20260905164455 87 50 4.0 7.0 0.00 0.30 0.30 57 1015.4
20260905163950 88 77 3.0 4.0 0.00 0.30 0.30 61 1015.3
20260905163447 88 74 4.0 4.0 0.00 0.30 0.30 57 1015.3
20260905162943 87 115 2.0 6.0 0.00 0.30 0.30 66 1015.3
20260905162438 86 100 4.0 6.0 0.00 0.30 0.30 61 1015.3
20260905161932 86 129 4.0 7.0 0.00 0.30 0.30 64 1015.2
20260905161431 86 31 4.0 8.0 0.00 0.30 0.30 64 1015.4
20260905160930 86 35 4.0 7.0 0.00 0.30 0.30 60 1015.3
20260905160425 85 86 5.0 7.0 0.00 0.30 0.30 65 1015.3
20260905155924 85 82 4.0 7.0 0.00 0.30 0.30 63 1015.3
20260905155418 85 113 4.0 7.0 0.00 0.30 0.30 66 1015.3
20260905154916 84 94 3.0 8.0 0.00 0.30 0.30 67 1015.3
20260905154412 84 111 3.0 8.0 0.00 0.30 0.30 68 1015.4
20260905153908 84 98 4.0 6.0 0.00 0.30 0.30 69 1015.5
20260905153404 83 81 4.0 10.0 0.00 0.30 0.30 69 1015.5
20260905152904 83 53 4.0 6.0 0.00 0.30 0.30 71 1015.8
20260905152403 82 90 4.0 7.0 0.00 0.30 0.30 72 1015.7
20260905151858 83 88 5.0 8.0 0.00 0.30 0.30 70 1015.8
20260905151355 82 50 2.0 6.0 0.00 0.30 0.30 74 1015.7
20260905150854 82 120 2.0 4.0 0.00 0.30 0.30 77 1016.0
20260905150348 82 58 2.0 4.0 0.00 0.30 0.30 73 1016.0
20260905145846 81 85 2.0 6.0 0.00 0.30 0.30 77 1015.9
20260905145346 79 59 2.0 4.0 0.00 0.30 0.30 78 1015.9
20260905144845 80 56 3.0 7.0 0.00 0.30 0.30 78 1015.9
20260905144336 79 95 3.0 7.0 0.00 0.30 0.30 78 1015.9
20260905143834 77 105 4.0 6.0 0.00 0.30 0.30 82 1015.8
20260905143328 77 79 6.0 7.0 0.00 0.30 0.30 80 1016.1
20260905142827 78 54 3.0 7.0 0.00 0.30 0.30 82 1016.1
20260905142321 78 82 6.0 10.0 0.00 0.30 0.30 82 1016.2
20260905141817 77 79 4.0 8.0 0.00 0.30 0.30 85 1016.4
20260905141312 77 37 5.0 9.0 0.00 0.30 0.30 85 1016.0
20260905140808 76 81 2.0 6.0 0.00 0.30 0.30 88 1016.4
20260905140308 75 27 6.0 9.0 0.00 0.30 0.30 88 1016.4
20260905135806 74 12 2.0 9.0 0.00 0.30 0.30 89 1016.2
20260905135257 74 16 6.0 10.0 0.00 0.30 0.30 90 1016.1
20260905134757 74 17 9.0 10.0 0.00 0.30 0.30 90 1016.3
20260905134251 73 355 7.0 9.0 0.00 0.30 0.30 92 1016.2
20260905133745 73 32 3.0 6.0 0.00 0.30 0.30 94 1016.2
20260905133240 73 53 5.0 9.0 0.00 0.30 0.30 93 1016.3
20260905132739 72 7 3.0 6.0 0.00 0.30 0.30 96 1016.6
20260905132235 71 30 4.0 9.0 0.00 0.30 0.30 97 1016.4
20260905131730 70 36 3.0 8.0 0.00 0.30 0.30 97 1016.6
20260905131225 70 7 4.0 6.0 0.00 0.30 0.30 97 1016.8
20260905130720 70 27 3.0 9.0 0.05 0.30 0.30 97 1016.9
20260905130219 70 328 5.0 13.0 0.17 0.30 0.30 96 1016.9
20260905125714 71 6 5.0 13.0 0.12 0.29 0.29 95 1016.6
20260905125209 72 5 6.0 8.0 0.00 0.27 0.27 91 1017.0
20260905124706 72 63 3.0 4.0 0.00 0.27 0.27 91 1017.3
20260905124201 72 46 2.0 3.0 0.00 0.27 0.27 91 1017.0
20260905123656 72 29 2.0 4.0 0.00 0.27 0.27 91 1016.8
20260905123154 72 11 2.0 9.0 0.00 0.27 0.27 91 1016.4
20260905122653 72 26 5.0 7.0 0.00 0.27 0.27 92 1016.4
20260905122148 72 25 2.0 6.0 0.00 0.27 0.27 93 1016.1
20260905121642 72 9 3.0 4.0 0.00 0.27 0.27 92 1015.9
20260905121138 72 58 1.0 3.0 0.00 0.27 0.27 93 1015.7
20260905120637 72 8 4.0 4.0 0.00 0.27 0.27 94 1015.9
20260905120132 72 32 3.0 7.0 0.00 0.27 0.27 94 1015.8
20260905115631 72 344 4.0 6.0 0.00 0.27 0.27 94 1015.8
20260905115126 72 30 4.0 7.0 0.00 0.27 0.27 94 1015.5
20260905114626 72 96 3.0 7.0 0.00 0.27 0.27 93 1015.6
20260905114125 72 16 4.0 6.0 0.00 0.27 0.27 93 1015.6
20260905113620 72 327 4.0 9.0 0.00 0.27 0.27 93 1015.6
20260905113116 72 11 3.0 7.0 0.00 0.27 0.27 93 1015.6
20260905112610 72 349 4.0 7.0 0.00 0.27 0.27 93 1015.5
20260905112106 72 134 2.0 4.0 0.00 0.27 0.27 95 1015.4
20260905111606 72 4 4.0 7.0 0.00 0.27 0.27 95 1015.5
20260905111105 72 5 3.0 8.0 0.00 0.27 0.27 95 1015.5
20260905110604 72 321 5.0 10.0 0.00 0.27 0.27 94 1015.3
20260905110059 72 78 4.0 7.0 0.00 0.27 0.27 94 1014.9
20260905105554 73 34 4.0 11.0 0.00 0.27 0.27 93 1015.0
20260905105053 73 69 2.0 8.0 0.00 0.27 0.27 95 1015.4
20260905104549 73 344 5.0 7.0 0.00 0.27 0.27 99 1015.5
20260905104049 73 326 4.0 6.0 0.00 0.27 0.27 99 1015.0
20260905103544 72 84 2.0 2.0 0.00 0.27 0.27 99 1014.5
20260905103040 73 111 1.0 2.0 0.00 0.27 0.27 99 1014.3
20260905102536 73 131 0.0 2.0 0.00 0.27 0.27 98 1014.3
20260905102032 73 162 2.0 2.0 0.00 0.27 0.27 96 1014.2
20260905101530 74 126 1.0 3.0 0.00 0.27 0.27 92 1014.3
20260905101029 74 177 2.0 6.0 0.42 0.27 0.27 91 1014.3
20260905100526 76 232 4.0 6.0 1.63 0.27 0.27 85 1014.2
20260905100025 73 229 9.0 16.0 1.16 0.19 0.19 99 1015.5
20260905095520 73 189 5.0 8.0 0.00 0.00 0.00 99 1014.9
20260905095015 73 182 2.0 2.0 0.00 0.00 0.00 99 1014.9
20260905094510 72 193 0.0 0.0 0.00 0.00 0.00 99 1014.4
20260905094009 72 116 0.0 0.0 0.00 0.00 0.00 99 1013.9
20260905093504 72 118 0.0 0.0 0.00 0.00 0.00 99 1014.1
20260905093000 72 120 0.0 0.0 0.00 0.00 0.00 99 1014.2
20260905092455 72 119 0.0 0.0 0.00 0.00 0.00 99 1014.0
20260905091950 72 120 0.0 0.0 0.00 0.00 0.00 99 1013.8
20260905091444 72 138 0.0 0.0 0.00 0.00 0.00 99 1013.9
20260905090939 72 120 0.0 0.0 0.00 0.00 0.00 99 1013.8
20260905090434 72 112 0.0 0.0 0.00 0.00 0.00 99 1013.9
20260905085932 72 120 0.0 0.0 0.00 0.00 0.00 99 1013.9
20260905085433 72 110 0.0 0.0 0.00 0.00 0.00 99 1013.8
20260905084928 72 122 0.0 0.0 0.00 0.00 0.00 99 1013.7
20260905084428 73 117 0.0 0.0 0.00 0.00 0.00 99 1014.0
20260905083922 73 120 0.0 0.0 0.00 0.00 0.00 99 1014.0
20260905083418 73 120 0.0 0.0 0.00 0.00 0.00 99 1014.0
20260905082914 73 115 0.0 0.0 0.00 0.00 0.00 99 1013.7
20260905082409 72 107 0.0 0.0 0.00 0.00 0.00 99 1013.8
20260905081904 72 127 0.0 0.0 0.00 0.00 0.00 99 1013.9
20260905081359 72 129 0.0 0.0 0.00 0.00 0.00 99 1013.7
20260905080858 72 122 0.0 0.0 0.00 0.00 0.00 99 1013.9
20260905080353 72 117 0.0 0.0 0.00 0.00 0.00 99 1013.7
20260905075851 72 113 0.0 0.0 0.00 0.00 0.00 99 1013.8
20260905075345 72 117 0.0 0.0 0.00 0.00 0.00 99 1014.0
20260905074844 72 118 0.0 0.0 0.00 0.00 0.00 99 1013.9
20260905074340 72 118 0.0 0.0 0.00 0.00 0.00 99 1014.0
20260905073836 72 117 0.0 0.0 0.00 0.00 0.00 99 1014.0
20260905073325 72 119 0.0 0.0 0.00 0.00 0.00 99 1014.0
20260905072820 73 119 0.0 0.0 0.00 0.00 0.00 99 1014.2
20260905072315 72 115 0.0 0.0 0.00 0.00 0.00 99 1014.1
20260905071812 73 113 0.0 0.0 0.00 0.00 0.00 99 1014.1
20260905071307 72 119 0.0 0.0 0.00 0.00 0.00 99 1014.1
20260905070802 73 119 0.0 0.0 0.00 0.00 0.00 99 1014.1
20260905070258 73 121 0.0 0.0 0.00 0.00 0.00 99 1014.2
20260905065757 73 121 0.0 0.0 0.00 0.00 0.00 99 1014.1
20260905065250 73 122 0.0 0.0 0.00 0.00 0.00 99 1014.2
20260905064746 73 120 0.0 0.0 0.00 0.00 0.00 99 1014.5
20260905064242 73 120 0.0 0.0 0.00 0.00 0.00 99 1014.5
20260905063740 73 123 0.0 0.0 0.00 0.00 0.00 99 1014.7
20260905063236 73 117 0.0 0.0 0.00 0.00 0.00 99 1014.7
20260905062731 73 117 0.0 0.0 0.00 0.00 0.00 99 1014.6
20260905062225 73 112 0.0 0.0 0.00 0.00 0.00 99 1014.6
20260905061720 73 120 0.0 0.0 0.00 0.00 0.00 99 1014.8
20260905061214 74 127 0.0 0.0 0.00 0.00 0.00 99 1014.9
20260905060709 73 121 0.0 0.0 0.00 0.00 0.00 99 1014.9
20260905060206 74 121 0.0 0.0 0.00 0.00 0.00 99 1014.8
20260905055704 73 121 0.0 0.0 0.00 0.00 0.00 99 1014.8
20260905055200 74 112 0.0 0.0 0.00 0.00 0.00 99 1015.0
20260905054655 74 95 0.0 0.0 0.00 0.00 0.00 99 1015.0
20260905054150 74 116 0.0 0.0 0.00 0.00 0.00 99 1014.9
20260905053644 74 120 0.0 0.0 0.00 0.00 0.00 99 1015.2
20260905053139 74 112 0.0 0.0 0.00 0.00 0.00 99 1015.0
20260905052639 74 115 0.0 0.0 0.00 0.00 0.00 99 1015.2
20260905052133 74 119 0.0 0.0 0.00 0.00 0.00 99 1015.2
20260905051629 74 119 0.0 0.0 0.00 0.00 0.00 99 1015.0
20260905051125 74 119 0.0 0.0 0.00 0.00 0.00 99 1014.9
20260905050622 74 119 0.0 0.0 0.00 0.00 0.00 99 1015.2
20260905050118 74 118 0.0 0.0 0.00 0.00 0.00 99 1014.9
20260905045618 74 118 0.0 0.0 0.00 0.00 0.00 99 1015.2
20260905045113 74 118 0.0 0.0 0.00 0.00 0.00 99 1015.2
20260905044608 74 118 0.0 0.0 0.00 0.00 0.00 99 1015.2
20260905044103 74 118 0.0 0.0 0.00 0.00 0.00 99 1015.2
20260905043601 75 107 0.0 0.0 0.00 0.00 0.00 99 1015.3
20260905043057 75 114 0.0 0.0 0.00 0.00 0.00 99 1015.0
20260905042555 75 109 0.0 0.0 0.00 0.00 0.00 99 1015.4
20260905042051 75 119 0.0 0.0 0.00 0.00 0.00 99 1015.3
20260905041546 75 119 0.0 0.0 0.00 0.00 0.00 99 1015.2
20260905041042 75 118 0.0 0.0 0.00 0.00 0.00 99 1015.3
20260905040541 75 117 0.0 0.0 0.00 0.00 0.00 99 1015.3
20260905040039 75 119 0.0 0.0 0.00 0.00 0.00 99 1015.0
20260905035535 75 119 0.0 0.0 0.00 0.00 0.00 99 1015.4
20260905035032 75 119 0.0 0.0 0.00 0.00 0.00 99 1015.3
20260905034527 75 119 0.0 0.0 0.00 0.00 0.00 99 1015.5
20260905034026 75 117 0.0 0.0 0.00 0.00 0.00 99 1015.4
20260905033520 75 117 0.0 0.0 0.00 0.00 0.00 99 1015.7
20260905033017 75 112 0.0 0.0 0.00 0.00 0.00 99 1015.5
20260905032511 75 120 0.0 0.0 0.00 0.00 0.00 99 1015.4
20260905032006 75 120 0.0 0.0 0.00 0.00 0.00 99 1015.4
20260905031502 75 120 0.0 0.0 0.00 0.00 0.00 99 1015.5
20260905030956 76 120 0.0 0.0 0.00 0.00 0.00 99 1015.8
20260905030452 76 120 0.0 0.0 0.00 0.00 0.00 99 1015.6
20260905025950 76 120 0.0 0.0 0.00 0.00 0.00 99 1015.7
20260905025447 76 124 0.0 0.0 0.00 0.00 0.00 99 1015.5
20260905024943 76 115 0.0 0.0 0.00 0.00 0.00 99 1015.4
20260905024443 76 119 0.0 0.0 0.00 0.00 0.00 99 1015.5
20260905023939 76 121 0.0 0.0 0.00 0.00 0.00 99 1015.4
20260905023428 76 117 0.0 0.0 0.00 0.00 0.00 99 1015.2
20260905022927 76 117 0.0 0.0 0.00 0.00 0.00 99 1015.2
20260905022422 76 117 0.0 0.0 0.00 0.00 0.00 99 1015.3
20260905021917 76 117 0.0 0.0 0.00 0.00 0.00 99 1015.3
20260905021412 76 117 0.0 0.0 0.00 0.00 0.00 99 1015.2
20260905020907 77 116 0.0 0.0 0.00 0.00 0.00 99 1015.0
20260905020406 77 115 0.0 0.0 0.00 0.00 0.00 99 1015.0
20260905015906 77 115 0.0 0.0 0.00 0.00 0.00 99 1015.0
20260905015405 77 116 0.0 0.0 0.00 0.00 0.00 99 1014.9
20260905014904 77 119 0.0 0.0 0.00 0.00 0.00 99 1015.0
20260905014400 77 119 0.0 0.0 0.00 0.00 0.00 99 1014.9
20260905013855 77 119 0.0 0.0 0.00 0.00 0.00 99 1014.9
20260905013352 77 119 0.0 0.0 0.00 0.00 0.00 99 1015.0
20260905012851 77 119 0.0 0.0 0.00 0.00 0.00 99 1014.9
20260905012347 78 119 0.0 0.0 0.00 0.00 0.00 99 1014.8
20260905011844 78 118 0.0 0.0 0.00 0.00 0.00 99 1014.9
20260905011339 78 117 0.0 0.0 0.00 0.00 0.00 99 1014.6
20260905010834 78 118 0.0 0.0 0.00 0.00 0.00 99 1014.6
20260905010324 78 119 0.0 0.0 0.00 0.00 0.00 99 1014.6
20260905005820 78 117 0.0 0.0 0.00 0.00 0.00 99 1014.7
20260905005316 79 117 0.0 0.0 0.00 0.00 0.00 98 1014.4
20260905004816 79 114 0.0 0.0 0.00 0.00 0.00 98 1014.3
20260905004310 79 119 0.0 0.0 0.00 0.00 0.00 98 1014.3
20260905003806 80 119 0.0 0.0 0.00 0.00 0.00 98 1014.2
20260905003302 80 119 0.0 0.0 0.00 0.00 0.00 96 1014.4
20260905002757 80 119 0.0 0.0 0.00 0.00 0.00 95 1014.2
20260905002256 81 120 0.0 0.0 0.00 0.00 0.00 93 1014.1
20260905001751 81 120 0.0 0.0 0.00 0.00 0.00 92 1014.2
20260905001251 82 117 0.0 0.0 0.00 0.00 0.00 93 1014.1
20260905000747 82 117 0.0 0.0 0.00 0.00 0.00 91 1014.3
20260905000242 82 122 0.0 0.0 0.00 0.00 0.00 89 1014.1
20260904235738 83 124 0.0 0.0 0.00 0.00 0.00 89 1014.1
20260904235232 84 124 0.0 0.0 0.00 0.00 0.00 88 1014.1